When you browse on this site, cookies collect data to enhance your experience and personalize the content and advertising you see.
Visit our Privacy Policy to learn more. By continuing to use the site, you agree to this use of cookies and data.

Hourly Weather Surmowka

Today, 5 July, Sunday

Time Temperature Precipitation Wind Pressure Humidity
00:00 +18°C° 0.1 mm 3 mps 742 mmHg 83%
01:00 +18°C° 0 mm 4 mps 742 mmHg 77%
02:00 +18°C° 0.2 mm 3 mps 741 mmHg 81%
03:00 +17°C° 0.2 mm 3 mps 741 mmHg 84%
04:00 +17°C° 0.2 mm 3 mps 741 mmHg 88%
05:00 +17°C° 0.4 mm 3 mps 741 mmHg 90%
06:00 +17°C° 0.4 mm 3 mps 741 mmHg 92%
07:00 +17°C° 0 mm 3 mps 741 mmHg 94%
08:00 +19°C° 0 mm 4 mps 741 mmHg 88%
09:00 +20°C° 0 mm 5 mps 741 mmHg 82%
10:00 +22°C° 0 mm 5 mps 741 mmHg 75%
11:00 +22°C° 0.2 mm 6 mps 741 mmHg 75%
12:00 +23°C° 0.2 mm 6 mps 740 mmHg 74%
13:00 +25°C° 0 mm 5 mps 740 mmHg 71%
14:00 +25°C° 0.2 mm 5 mps 740 mmHg 72%
15:00 +25°C° 0.2 mm 5 mps 739 mmHg 73%
16:00 +24°C° 0.2 mm 6 mps 739 mmHg 74%
17:00 +23°C° 0.1 mm 5 mps 739 mmHg 78%
18:00 +23°C° 0.1 mm 4 mps 739 mmHg 82%
19:00 +22°C° 0.1 mm 4 mps 739 mmHg 86%
20:00 +21°C° 0 mm 4 mps 739 mmHg 86%
21:00 +21°C° 0 mm 4 mps 739 mmHg 86%
22:00 +21°C° 0 mm 4 mps 739 mmHg 85%
23:00 +20°C° 0 mm 4 mps 739 mmHg 87%

Tomorrow, 6 July, Monday

Time Temperature Precipitation Wind Pressure Humidity
00:00 +20°C° 0 mm 3 mps 739 mmHg 88%
01:00 +19°C° 0 mm 3 mps 739 mmHg 89%
02:00 +19°C° 0 mm 3 mps 738 mmHg 90%
03:00 +18°C° 0 mm 3 mps 738 mmHg 91%
04:00 +18°C° 0 mm 3 mps 738 mmHg 92%
05:00 +18°C° 0.1 mm 3 mps 738 mmHg 92%
06:00 +18°C° 0.1 mm 4 mps 738 mmHg 91%
07:00 +18°C° 0.1 mm 4 mps 738 mmHg 90%
08:00 +18°C° 0 mm 4 mps 738 mmHg 87%
09:00 +19°C° 0 mm 4 mps 738 mmHg 84%
10:00 +19°C° 0 mm 5 mps 738 mmHg 80%
11:00 +20°C° 0.1 mm 5 mps 738 mmHg 75%
12:00 +21°C° 0.1 mm 6 mps 738 mmHg 69%
13:00 +22°C° 0.1 mm 6 mps 738 mmHg 63%
14:00 +21°C° 0.1 mm 6 mps 738 mmHg 65%
15:00 +21°C° 0.1 mm 5 mps 738 mmHg 67%
16:00 +20°C° 0.1 mm 4 mps 738 mmHg 68%
17:00 +19°C° 0.1 mm 4 mps 738 mmHg 71%
18:00 +18°C° 0.1 mm 3 mps 738 mmHg 73%
19:00 +17°C° 0.1 mm 3 mps 739 mmHg 76%
20:00 +14°C° 0 mm 3 mps 739 mmHg 78%
21:00 +14°C° 0 mm 2 mps 739 mmHg 81%
22:00 +13°C° 0 mm 2 mps 739 mmHg 84%
23:00 +11°C° 0 mm 3 mps 740 mmHg 83%

Day after tomorrow, 7 July, Tuesday

Time Temperature Precipitation Wind Pressure Humidity
00:00 +11°C° 0 mm 3 mps 740 mmHg 82%
01:00 +11°C° 0 mm 3 mps 740 mmHg 82%
02:00 +11°C° 0 mm 3 mps 740 mmHg 83%
03:00 +11°C° 0 mm 3 mps 740 mmHg 84%
04:00 +11°C° 0 mm 3 mps 740 mmHg 85%
05:00 +11°C° 0 mm 4 mps 741 mmHg 82%
06:00 +12°C° 0 mm 4 mps 741 mmHg 79%
07:00 +13°C° 0 mm 4 mps 742 mmHg 77%
08:00 +14°C° 0.1 mm 5 mps 742 mmHg 72%
09:00 +15°C° 0.1 mm 5 mps 742 mmHg 67%
10:00 +16°C° 0.1 mm 6 mps 742 mmHg 63%
11:00 +16°C° 0.1 mm 6 mps 743 mmHg 62%
12:00 +16°C° 0.1 mm 6 mps 743 mmHg 62%
13:00 +16°C° 0.1 mm 6 mps 743 mmHg 61%
14:00 +16°C° 0.1 mm 6 mps 743 mmHg 62%
15:00 +16°C° 0.1 mm 6 mps 743 mmHg 62%
16:00 +15°C° 0.1 mm 6 mps 743 mmHg 63%
17:00 +15°C° 0 mm 5 mps 743 mmHg 68%
18:00 +14°C° 0 mm 4 mps 743 mmHg 73%
19:00 +13°C° 0 mm 3 mps 743 mmHg 78%
20:00 +12°C° 0 mm 3 mps 743 mmHg 82%
21:00 +11°C° 0 mm 3 mps 744 mmHg 85%
22:00 +10°C° 0 mm 3 mps 744 mmHg 89%
23:00 +10°C° 0 mm 3 mps 744 mmHg 90%

8 July, Wednesday

Time Temperature Precipitation Wind Pressure Humidity
00:00 +9°C° 0 mm 3 mps 743 mmHg 91%
01:00 +9°C° 0 mm 3 mps 743 mmHg 92%
02:00 +9°C° 0 mm 3 mps 743 mmHg 92%
03:00 +8°C° 0 mm 3 mps 743 mmHg 92%
04:00 +8°C° 0 mm 3 mps 743 mmHg 92%
05:00 +10°C° 0 mm 3 mps 743 mmHg 85%
06:00 +12°C° 0 mm 4 mps 743 mmHg 78%
07:00 +14°C° 0 mm 4 mps 743 mmHg 71%
08:00 +15°C° 0.1 mm 5 mps 743 mmHg 68%
09:00 +15°C° 0.1 mm 5 mps 742 mmHg 65%
10:00 +16°C° 0.1 mm 6 mps 742 mmHg 62%
11:00 +15°C° 0.2 mm 5 mps 742 mmHg 71%
12:00 +13°C° 0.2 mm 5 mps 742 mmHg 80%
13:00 +12°C° 0.2 mm 5 mps 742 mmHg 89%
14:00 +12°C° 0.1 mm 5 mps 742 mmHg 86%
15:00 +13°C° 0.1 mm 5 mps 742 mmHg 84%
16:00 +14°C° 0.1 mm 4 mps 742 mmHg 81%
17:00 +13°C° 0.2 mm 4 mps 742 mmHg 84%
18:00 +13°C° 0.2 mm 3 mps 742 mmHg 88%
19:00 +13°C° 0.2 mm 3 mps 742 mmHg 91%
20:00 +12°C° 0 mm 3 mps 742 mmHg 92%
21:00 +11°C° 0 mm 3 mps 742 mmHg 94%
22:00 +10°C° 0 mm 3 mps 742 mmHg 95%
23:00 +9°C° 0 mm 3 mps 742 mmHg 94%

9 July, Thursday

Time Temperature Precipitation Wind Pressure Humidity
00:00 +9°C° 0 mm 3 mps 743 mmHg 93%
01:00 +8°C° 0 mm 3 mps 743 mmHg 92%
02:00 +8°C° 0 mm 3 mps 743 mmHg 93%
03:00 +8°C° 0 mm 3 mps 743 mmHg 94%
04:00 +7°C° 0 mm 4 mps 743 mmHg 95%
05:00 +10°C° 0 mm 4 mps 744 mmHg 91%
06:00 +11°C° 0 mm 4 mps 744 mmHg 88%
07:00 +13°C° 0 mm 4 mps 744 mmHg 84%
08:00 +14°C° 0.1 mm 4 mps 745 mmHg 78%
09:00 +16°C° 0.1 mm 5 mps 745 mmHg 71%
10:00 +17°C° 0.1 mm 5 mps 746 mmHg 65%
11:00 +19°C° 0.1 mm 4 mps 746 mmHg 63%
12:00 +19°C° 0.1 mm 4 mps 746 mmHg 60%
13:00 +20°C° 0.1 mm 4 mps 746 mmHg 58%
14:00 +19°C° 0.2 mm 4 mps 745 mmHg 60%
15:00 +19°C° 0.2 mm 3 mps 745 mmHg 63%
16:00 +19°C° 0.2 mm 3 mps 745 mmHg 65%
17:00 +18°C° 0.1 mm 2 mps 745 mmHg 71%
18:00 +18°C° 0.1 mm 1 mps 745 mmHg 77%
19:00 +16°C° 0.1 mm 1 mps 745 mmHg 82%
20:00 +14°C° 0 mm 1 mps 745 mmHg 85%
21:00 +13°C° 0 mm 1 mps 745 mmHg 87%
22:00 +12°C° 0 mm 1 mps 746 mmHg 89%
23:00 +11°C° 0 mm 1 mps 745 mmHg 90%

10 July, Friday

Time Temperature Precipitation Wind Pressure Humidity
00:00 +11°C° 0 mm 1 mps 745 mmHg 91%
01:00 +11°C° 0 mm 1 mps 745 mmHg 91%
02:00 +10°C° 0 mm 2 mps 745 mmHg 91%
03:00 +10°C° 0 mm 2 mps 745 mmHg 90%
04:00 +10°C° 0 mm 2 mps 745 mmHg 90%
05:00 +11°C° 0 mm 3 mps 745 mmHg 86%
06:00 +13°C° 0 mm 3 mps 745 mmHg 82%
07:00 +16°C° 0 mm 3 mps 745 mmHg 78%
08:00 +18°C° 0 mm 3 mps 744 mmHg 71%
09:00 +19°C° 0 mm 4 mps 744 mmHg 65%
10:00 +21°C° 0 mm 4 mps 744 mmHg 58%
11:00 +22°C° 0 mm 4 mps 744 mmHg 58%
12:00 +22°C° 0 mm 4 mps 744 mmHg 58%
13:00 +23°C° 0 mm 4 mps 743 mmHg 59%
14:00 +23°C° 0.1 mm 4 mps 743 mmHg 61%
15:00 +23°C° 0.1 mm 4 mps 742 mmHg 64%
16:00 +25°C° 0.1 mm 4 mps 742 mmHg 67%
17:00 +22°C° 0.4 mm 3 mps 741 mmHg 74%
18:00 +21°C° 0.4 mm 3 mps 741 mmHg 81%
19:00 +20°C° 0.4 mm 3 mps 740 mmHg 88%
20:00 +19°C° 0.2 mm 3 mps 740 mmHg 90%
21:00 +18°C° 0.2 mm 3 mps 740 mmHg 92%
22:00 +17°C° 0.2 mm 3 mps 740 mmHg 94%
23:00 +17°C° 0.5 mm 3 mps 740 mmHg 95%
Show more